STARLINK-1131, 45047

Orbit data source: Space-Track

STARLINK-1131, 45047 is a payload satellite owned by SpaceX/Seattle (US) in LEO that was launched on Wed, 29 Jan 2020 UTC via an FALCON 9 launch vehicle from the Air Force Eastern Test Range (AFETR). Payloads include a variety of satellites, spacecraft, and rockets equipped with specific instruments for various scientific and technological missions. These include communications satellites like Starlink; space stations such as the ISS; scientific satellites like the Hubble; Earth observation satellites from companies like Planet Labs, Umbra, and HawkEye 360; GPS; miniature CubeSats for education and research; and military/defense satellites.

Loading next visibility...
STARLINK-1131 details
Identifier
45047, 2020-006D
Orbit
LEO
Last TLE update22 hours ago
Origin
Flag of USSpaceX/Seattle (US)
ManufacturerSpaceX/Seattle
MissionOperational Commercial Communications
Bus & MotorSTARLINK, Unknown motor
Mass260 kg wet, ~248 kg dry
Launch date (UTC)
2020-01-29 (5 years ago)
Launch vehicle
FALCON 9
Launch site
Air Force Eastern Test Range (AFETR)
Object type
Payload
Rocket body
Debris
Shape & HBRBox + 1 Pan, 8.86 m
Radar Cross Section13.562 m², Large (>1 m²)

Expand to show TLE details & history

TLE from 22 hours ago
0 STARLINK-1131
1 45047U 20006D   24360.54561511  .00017145  00000-0  11679-2 0  9995
2 45047  53.0534  98.5533 0001360  96.6277 263.4867 15.06375286270606
Epoch: 2024-12-25T13:05Z
Definitive object data (Epoch: 2024-12-25T13:05:41.145Z)
Latitude-0.00001°
Longitude167.59404°
Altitude548.273 km
Speed7.589 km/s
True Right ascension06h 34m 12s
True Declination0° 00' 00"
Sunlit
Object was in full shadow at TLE epoch
Visualization TLE readout
Latitude-7.13229°
Longitude158.06002°
Altitude549.563 km
Speed7.588 km/s
Apparent Right ascension03h 11m 36s
Apparent Declination-34° 52' 55"
Sunlit
Object is in full shadow
Visualization observer readout
Local Sidereal Time10:42:13
Azimuth252.694° W
Elevation-37.539°
Doppler factor1
Orbital elements
Apogee altitude548.5 km
Perigee altitude546.616 km
Semi-major axis6,925.695 km
Eccentricity0.000136
Inclination53.0534°
RAAN98.5533°
Arg. of periapsis96.6277°
True anomaly263.47122°
Mean anomaly263.4867°
Eccentric anomaly263.47896°
Mean motion3.76572 °/min
BSTAR0.0011679
Orbital period95.6 mins
Loading maneuver chart data...
Loading historical data...
Loading historical data...
Loading historical data...
Loading historical data...
Loading historical data...
Loading historical data...
Loading historical data...

STARLINK-1131 Visibility forecast

Observer location: undefined°, undefined

Span
Click to sort rows by Start time (UTC) header in descending order
Start Az.
Max El. time (UTC)
Max El. Az.
Max El.
End time (UTC)
End Az.
5 mins2024-12-26 11:40:53.044Z306.279° NW2024-12-26 11:42:53.044Z336.662° NNW15.763°2024-12-26 11:45:53.044Z24.316° NE
5 mins2024-12-26 15:02:53.044Z343.53° N2024-12-26 15:04:53.044Z28.886° NE25.54°2024-12-26 15:07:53.044Z84.264° E
6 mins2024-12-26 16:41:53.044Z294.14° NW2024-12-26 16:44:53.044Z204.503° SW36.955°2024-12-26 16:47:53.044Z151.653° SSE
6 mins2024-12-27 08:14:53.044Z182.339° SSW2024-12-27 08:16:53.044Z144.617° SSE25.625°2024-12-27 08:20:53.044Z70.31° E
5 mins2024-12-27 09:54:53.044Z273.306° WNW2024-12-27 09:56:53.044Z332.245° NNW33.116°2024-12-27 09:59:53.044Z34.505° NE
|